Total_Precipitation_Accumulation
0.01 0.02 0.04 0.07 0.15 0.34 0.46 0.36 0.45 0.50 0.62 0.64 0.67 0.75 0.79 0.86 1.32 2.17 1.42 0.87 0.58 0.41 0.42 0.49 0.47 0.44 0.48 0.49 0.53 0.55 0.60 0.61 0.59 0.60 0.56 0.55 0.60 0.64 0.68 0.82 0.96 1.08 1.18 1.17 1.24 1.38 1.39 1.30 1.24
0.02 0.03 0.05 0.09 0.22 0.39 0.48 0.51 0.62 0.52 0.59 0.64 0.66 0.72 0.71 0.71 0.71 0.81 0.85 0.84 0.65 0.51 0.61 0.56 0.46 0.45 0.49 0.51 0.57 0.59 0.63 0.69 0.72 0.74 0.68 0.64 0.69 0.76 0.81 0.96 1.05 1.17 1.34 1.32 1.26 1.35 1.42 1.27 1.24
0.03 0.04 0.08 0.17 0.24 0.35 0.54 0.60 0.66 0.59 0.66 0.67 0.76 0.82 0.92 0.95 0.82 0.80 0.82 0.78 0.71 0.60 0.71 0.64 0.52 0.50 0.49 0.57 0.56 0.62 0.69 0.77 0.82 0.87 0.93 0.86 0.75 0.78 0.88 1.02 1.09 1.20 1.36 1.59 1.50 1.44 1.54 1.33 1.29
0.03 0.05 0.10 0.24 0.25 0.26 0.40 0.52 0.59 0.68 0.85 0.75 0.77 0.89 0.96 0.95 0.92 0.94 0.96 0.85 0.67 0.62 0.65 0.62 0.60 0.58 0.57 0.60 0.63 0.73 0.82 0.87 0.89 0.96 1.03 1.08 0.93 0.89 0.95 1.12 1.20 1.28 1.38 1.58 1.82 1.72 1.80 1.67 1.40
0.04 0.11 0.18 0.27 0.28 0.31 0.40 0.47 0.60 0.81 0.85 0.76 0.79 1.07 1.30 1.27 1.05 1.02 0.99 0.88 0.72 0.67 0.68 0.77 0.81 0.85 0.85 0.80 0.80 0.87 0.92 0.98 1.02 1.01 1.06 1.17 1.11 1.05 1.12 1.24 1.33 1.43 1.49 1.61 1.73 1.70 1.86 1.74 1.51
0.07 0.15 0.26 0.35 0.34 0.33 0.40 0.54 0.66 0.80 0.94 0.88 0.89 1.25 1.78 1.78 1.53 1.35 1.14 1.08 0.96 0.81 0.89 1.01 1.15 1.23 1.14 1.06 1.01 1.02 1.01 1.01 1.06 1.17 1.15 1.20 1.26 1.26 1.22 1.27 1.42 1.61 1.70 1.72 1.78 1.78 1.80 1.79 1.70
0.08 0.15 0.24 0.34 0.37 0.45 0.41 0.46 0.71 0.92 1.10 1.19 1.05 1.32 1.78 1.93 1.73 1.53 1.61 1.51 1.31 1.22 1.29 1.27 1.19 1.18 1.19 1.16 1.12 1.19 1.17 1.14 1.15 1.26 1.33 1.27 1.30 1.35 1.40 1.49 1.57 1.62 1.65 1.68 1.79 2.03 1.93 1.77 1.75
0.05 0.11 0.20 0.28 0.38 0.47 0.47 0.54 0.72 0.97 1.19 1.19 1.03 1.37 1.87 1.90 1.72 1.81 2.01 1.97 1.97 2.07 2.31 1.80 1.43 1.27 1.14 1.14 1.25 1.35 1.50 1.43 1.32 1.35 1.46 1.47 1.49 1.54 1.60 1.64 1.67 1.66 1.70 1.73 1.92 2.16 2.16 2.03 1.89
0.05 0.10 0.18 0.26 0.38 0.46 0.49 0.60 0.66 0.71 0.99 0.96 0.88 1.10 1.63 1.67 1.60 1.92 2.39 2.66 2.58 2.78 3.00 2.27 1.79 1.56 1.43 1.41 1.44 1.54 1.72 1.82 1.66 1.56 1.60 1.74 1.87 2.10 2.11 1.91 1.97 1.87 1.95 1.99 2.10 2.26 2.26 2.31 2.31
0.07 0.14 0.19 0.22 0.32 0.43 0.52 0.57 0.70 0.79 1.00 1.00 0.90 0.99 1.21 1.66 1.87 2.17 2.53 3.16 3.17 2.83 2.65 2.40 2.21 1.91 1.73 1.67 1.90 1.99 1.91 1.98 1.84 1.98 1.91 2.07 2.58 2.76 2.42 2.37 2.31 2.19 2.27 2.41 2.49 2.51 2.47 2.33 2.32
0.08 0.19 0.19 0.23 0.34 0.51 0.60 0.65 0.83 1.09 1.23 1.22 1.20 1.33 1.63 1.96 2.12 2.41 2.72 3.20 3.44 3.31 2.83 2.56 2.35 2.27 2.13 2.21 2.43 2.52 2.59 2.62 2.42 2.54 2.51 2.60 2.75 2.72 2.71 2.71 2.60 2.61 2.62 2.85 3.00 2.83 2.57 2.40 2.41
0.09 0.15 0.16 0.29 0.35 0.44 0.62 0.68 0.79 1.07 1.37 1.42 1.45 1.61 2.03 2.29 2.49 2.82 3.04 3.34 3.40 3.50 3.38 2.85 2.72 2.80 3.00 3.02 2.96 2.90 2.88 2.97 2.89 2.92 2.76 2.88 2.99 2.99 2.90 2.93 2.86 2.93 2.85 3.09 3.17 3.14 3.02 2.82 2.63
0.12 0.20 0.20 0.27 0.34 0.44 0.51 0.68 0.76 0.99 1.03 1.20 1.48 1.82 2.04 2.01 2.46 2.97 3.07 3.37 3.48 3.56 3.47 3.17 3.35 3.44 3.52 3.55 3.52 3.26 3.16 3.39 3.41 3.37 3.26 3.28 3.19 3.05 3.05 3.02 3.05 2.95 3.07 3.21 3.31 3.19 3.09 3.00 2.82
0.13 0.14 0.18 0.24 0.28 0.39 0.46 0.61 0.78 1.02 1.12 1.23 1.46 1.64 1.79 2.02 2.51 2.96 3.20 3.58 3.52 3.53 3.77 3.73 3.81 3.70 3.63 3.70 3.88 3.92 3.59 3.72 3.95 4.04 3.89 3.68 3.53 3.44 3.45 3.50 3.48 3.23 3.25 3.40 3.54 3.43 3.32 3.08 2.93
0.16 0.15 0.21 0.26 0.27 0.30 0.40 0.66 0.77 0.95 1.09 1.15 1.30 1.36 1.52 2.00 2.41 2.97 3.34 3.71 3.71 3.75 3.83 3.87 3.76 3.94 4.07 4.08 4.06 4.12 4.01 3.97 4.13 4.33 4.35 3.99 3.69 3.79 3.84 3.99 3.96 3.66 3.61 3.73 3.84 3.81 3.68 3.30 3.01
0.18 0.20 0.32 0.34 0.33 0.33 0.45 0.86 1.02 0.97 0.97 1.10 1.16 1.21 1.42 1.99 2.45 2.82 3.17 3.54 3.60 3.76 4.10 4.05 3.65 4.07 4.30 4.25 4.20 3.99 4.06 4.31 4.52 4.56 4.68 4.34 3.96 3.86 4.06 3.98 3.81 3.78 3.92 4.18 4.35 4.24 4.16 3.95 3.72
0.22 0.27 0.37 0.42 0.39 0.40 0.51 0.88 1.20 1.11 1.02 1.05 1.03 1.11 1.32 1.66 2.20 2.58 3.01 3.42 3.68 3.93 4.42 4.25 4.01 4.18 4.31 4.37 4.44 4.19 4.26 4.59 4.75 4.90 4.92 4.45 4.02 3.96 4.24 4.28 4.26 4.15 4.21 4.36 4.19 4.33 4.25 4.41 4.25
0.27 0.34 0.46 0.52 0.49 0.47 0.61 0.94 1.22 1.32 1.24 1.17 1.13 1.25 1.47 1.54 1.78 2.13 2.69 3.28 3.65 4.24 4.98 4.60 4.21 4.18 4.49 4.53 4.37 4.34 4.46 4.76 5.09 5.16 4.97 4.65 4.46 4.30 4.52 4.47 4.52 4.55 4.67 4.58 4.54 4.60 4.38 4.30 4.26
0.25 0.35 0.45 0.58 0.53 0.57 0.72 1.03 1.26 1.45 1.40 1.23 1.31 1.53 1.54 1.53 1.72 1.96 2.53 3.23 3.63 4.17 4.67 4.67 4.47 4.54 4.64 4.67 4.44 4.57 4.76 5.06 5.36 5.33 5.23 5.11 4.97 4.88 4.99 5.00 4.97 4.80 4.74 4.66 4.58 4.58 4.49 4.20 4.05
0.22 0.32 0.43 0.58 0.56 0.63 0.76 1.07 1.42 1.55 1.54 1.48 1.48 1.73 1.66 1.70 1.94 2.25 2.80 3.17 3.54 3.89 4.16 4.46 4.61 4.65 4.45 4.81 5.10 5.37 5.71 5.77 6.06 6.31 6.33 6.12 5.82 5.65 5.49 5.48 5.14 4.82 4.71 4.60 4.50 4.42 4.28 3.93 3.81
0.19 0.24 0.38 0.48 0.52 0.58 0.77 1.30 1.51 1.65 1.63 1.68 1.77 2.02 1.98 2.01 2.22 2.61 2.98 3.13 3.35 3.69 4.05 4.38 4.73 4.86 4.80 5.29 5.81 6.26 6.64 6.57 6.63 6.59 6.54 6.46 6.04 5.74 5.53 5.26 5.07 4.85 4.67 4.51 4.49 4.41 4.29 3.97 3.78
0.18 0.16 0.23 0.33 0.49 0.69 0.71 1.31 1.58 1.81 1.83 1.71 1.91 2.11 2.19 2.02 2.06 2.41 2.75 3.19 3.17 3.42 3.83 4.16 4.59 5.02 5.33 5.74 6.23 6.75 7.10 7.32 7.15 6.82 6.53 6.15 5.67 5.35 4.99 4.79 4.82 4.69 4.47 4.28 3.98 3.86 3.89 3.85 3.67
0.16 0.13 0.20 0.31 0.43 0.66 0.74 1.15 1.66 1.91 1.99 1.84 1.96 2.01 2.11 2.00 1.97 2.19 2.34 2.68 2.96 3.19 3.55 3.99 4.35 4.76 5.42 6.18 6.74 7.27 7.62 7.63 7.09 6.50 5.93 5.45 5.03 4.69 4.46 4.37 4.46 4.36 4.11 3.92 3.65 3.46 3.31 3.32 3.41
0.12 0.20 0.30 0.41 0.56 0.93 0.79 1.11 1.86 2.02 2.07 2.09 2.03 1.96 2.02 2.00 2.03 2.19 2.32 2.62 2.84 2.96 3.22 3.72 4.29 4.66 5.23 6.00 6.61 6.96 7.14 7.07 6.63 5.98 5.42 4.96 4.49 4.11 3.81 3.62 3.52 3.45 3.28 3.18 3.15 3.10 3.05 3.06 3.14
0.16 0.38 0.73 0.93 1.02 0.99 0.80 1.14 1.93 2.12 2.03 2.02 2.06 2.13 2.21 2.22 2.23 2.22 2.23 2.33 2.60 2.76 3.04 3.49 3.99 4.48 4.86 5.31 5.82 5.88 5.96 5.71 5.32 5.10 4.78 4.25 3.82 3.46 3.12 2.93 2.80 2.77 2.73 2.67 2.72 2.78 2.81 2.79 2.86
0.15 0.34 0.86 1.10 1.09 1.07 1.13 1.72 2.38 2.31 2.14 2.07 1.96 1.95 2.08 2.15 2.08 2.13 2.10 2.31 2.65 2.92 3.17 3.42 3.67 4.02 4.38 4.53 4.68 4.56 4.42 4.33 4.18 3.97 3.60 3.25 2.98 2.78 2.68 2.59 2.42 2.38 2.41 2.40 2.55 2.54 2.45 2.48 2.52
0.18 0.25 0.40 0.62 0.80 1.19 1.58 2.13 2.68 2.61 2.37 2.15 2.03 1.96 2.02 1.95 1.89 1.98 2.10 2.38 2.64 2.91 3.08 3.30 3.45 3.56 3.55 3.54 3.61 3.58 3.49 3.36 3.29 3.18 2.88 2.62 2.46 2.29 2.26 2.23 2.16 2.06 2.01 2.00 2.04 2.03 2.06 2.16 2.12
0.17 0.22 0.35 0.69 1.13 1.45 1.76 2.41 2.96 3.01 2.70 2.17 1.96 1.85 1.91 1.99 1.95 1.98 2.13 2.37 2.39 2.45 2.64 2.87 2.99 3.13 3.10 2.95 2.87 2.97 2.90 2.72 2.55 2.40 2.30 2.15 2.04 1.98 1.96 1.89 1.83 1.84 1.84 1.78 1.71 1.69 1.74 1.82 1.87
0.26 0.34 0.43 0.70 0.89 1.29 1.98 2.77 2.79 3.08 2.93 2.53 2.19 1.95 1.99 2.10 2.05 2.00 2.13 2.24 2.11 2.03 2.06 2.20 2.37 2.66 2.69 2.60 2.50 2.52 2.45 2.33 2.19 2.08 2.01 1.98 1.86 1.82 1.75 1.74 1.73 1.62 1.58 1.61 1.65 1.61 1.65 1.77 1.79
0.30 0.39 0.51 0.90 1.02 1.05 1.86 2.96 2.64 2.68 2.83 2.69 2.42 2.22 2.10 2.11 2.11 2.01 2.04 2.09 2.02 1.90 1.81 1.91 2.06 2.13 2.14 2.16 2.24 2.31 2.23 2.16 2.05 1.98 1.96 1.93 1.78 1.72 1.71 1.69 1.64 1.45 1.39 1.52 1.59 1.55 1.53 1.66 1.67